Weather History for Maxwell AFB, AL

Change the Weather History Date:

Friday, October 4, 2013

  Actual Average Record
Temperature  
Mean Temperature 76 °F -  
Max Temperature 90 °F 79 °F 90 °F (2013)
Min Temperature 64 °F 60 °F 48 °F (2010)
Cooling Degree Days 12    
Growing Degree Days 26 (Base 50)    
Moisture  
Dew Point 67 °F    
Average Humidity 81    
Maximum Humidity 100    
Minimum Humidity 45    
Precipitation  
Precipitation 0.00 in - - ()
Sea Level Pressure  
Sea Level Pressure 30.08 in    
Wind  
Wind Speed 3 mph (NE)    
Max Wind Speed 8 mph    
Max Gust Speed -    
Visibility 8 miles    
Events Fog    
Averages and records for this station are not official NWS values.
T = Trace of Precipitation, MM = Missing Value Source: NWS Daily Summary

Daily Weather History Graph

Daily Weather History Graph

Search for Another Location

Airport:

Trip Planner

Search our weather history database for the weather conditions in past years. The results will help you decide how hot, cold, wet, or windy it might be!

Date:

Astronomy

Oct. 04, 2013 Rise Set
Actual Time 6:41 AM CDT 6:25 PM CDT
Civil Twilight 6:17 AM CDT 6:50 PM CDT
Nautical Twilight 5:48 AM CDT 7:18 PM CDT
Astronomical Twilight 5:20 AM CDT 7:47 PM CDT
Moon 6:16 AM CDT (10/4) 6:10 PM CDT (10/4)
Length of Visible Light 12h 33m
Length of Day
11h 44m
Waning Crescent, 0% of the Moon is Illuminated
Oct 4
Waning Crescent
Oct 4
New
Oct 11
First Quarter
Oct 18
Full
Oct 26
Last Quarter

Hourly Weather History & Observations

Time (CDT) Temp. Heat Index Dew Point Humidity Pressure Visibility Wind Dir Wind Speed Gust Speed Precip Events Conditions
12:03 AM 68.0 °F - 66.2 °F 94% 30.07 in 0.5 mi North 2.3 mph - N/A Fog Fog
12:08 AM 68.0 °F - 68.0 °F 100% 30.07 in 0.5 mi North 2.3 mph - N/A Fog Fog
12:13 AM 68.0 °F - 68.0 °F 100% 30.07 in 1.0 mi North 1.2 mph - N/A   Clear
12:18 AM 68.0 °F - 68.0 °F 100% 30.07 in 1.8 mi North 2.3 mph - N/A   Clear
12:23 AM 68.0 °F - 68.0 °F 100% 30.07 in 2.0 mi North 3.5 mph - N/A   Clear
12:28 AM 68.0 °F - 66.2 °F 94% 30.07 in 5.0 mi North 3.5 mph - N/A   Clear
12:58 AM 67.5 °F - 67.3 °F 99% 30.07 in 9.0 mi North 2.3 mph - N/A   Clear
1:58 AM 67.1 °F - 66.7 °F 99% 30.07 in 8.0 mi NNE 2.3 mph - N/A   Clear
2:58 AM 66.6 °F - 66.2 °F 99% 30.06 in 10.0 mi NE 2.3 mph - N/A   Clear
3:58 AM 66.7 °F - 66.0 °F 98% 30.07 in 10.0 mi NE 3.5 mph - N/A   Clear
4:58 AM 66.6 °F - 65.7 °F 97% 30.08 in 10.0 mi NNE 2.3 mph - N/A   Clear
5:58 AM 65.5 °F - 65.1 °F 99% 30.09 in 8.0 mi NE 2.3 mph - N/A   Clear
6:58 AM 64.9 °F - 64.6 °F 99% 30.11 in 9.0 mi NNE 2.3 mph - N/A   Clear
7:58 AM 68.5 °F - 64.9 °F 88% 30.13 in 10.0 mi East 3.5 mph - N/A   Clear
8:58 AM 73.2 °F - 65.5 °F 77% 30.13 in 10.0 mi NE 2.3 mph - N/A   Clear
9:58 AM 78.4 °F - 67.8 °F 70% 30.14 in 10.0 mi NE 3.5 mph - N/A   Partly Cloudy
10:58 AM 82.0 °F 85.1 °F 68.2 °F 63% 30.13 in 10.0 mi ESE 4.6 mph - N/A   Mostly Cloudy
11:58 AM 86.4 °F 89.4 °F 67.6 °F 53% 30.12 in 10.0 mi Variable 6.9 mph - N/A   Partly Cloudy
12:58 PM 88.3 °F 91.2 °F 66.7 °F 49% 30.09 in 10.0 mi Variable 2.3 mph - N/A   Clear
1:58 PM 88.9 °F 91.4 °F 66.6 °F 47% 30.06 in 10.0 mi Variable 3.5 mph - N/A   Clear
2:58 PM 89.6 °F 92.6 °F 66.9 °F 47% 30.05 in 10.0 mi NE 8.1 mph - N/A   Scattered Clouds
3:58 PM 88.7 °F 91.1 °F 66.2 °F 47% 30.04 in 10.0 mi ESE 6.9 mph - N/A   Overcast
4:58 PM 89.2 °F 91.3 °F 65.7 °F 45% 30.04 in 10.0 mi ESE 5.8 mph - N/A   Mostly Cloudy
5:58 PM 85.1 °F 88.5 °F 68.2 °F 57% 30.05 in 10.0 mi ENE 8.1 mph - N/A   Clear
6:58 PM 81.7 °F 84.5 °F 68.2 °F 63% 30.06 in 10.0 mi ENE 5.8 mph - N/A   Clear
7:58 PM 76.1 °F - 68.5 °F 77% 30.07 in 10.0 mi Calm Calm - N/A   Clear
8:58 PM 75.0 °F - 70.7 °F 86% 30.09 in 10.0 mi NE 1.2 mph - N/A   Clear
9:58 PM 73.4 °F - 71.2 °F 93% 30.09 in 10.0 mi Calm Calm - N/A   Clear
10:58 PM 71.8 °F - 70.5 °F 96% 30.09 in 10.0 mi Calm Calm - N/A   Clear
11:58 PM 71.2 °F - 70.3 °F 97% 30.08 in 10.0 mi NE 2.3 mph - N/A   Clear